owner,sensor,date,latitude,longitude,vertical_datum,wind_speed,wind_to_direction,wind_speed_of_gust,qcFlag 
DISL,ioos:station:DISL:MHPA:1,2009-02-01T00:00:00Z,30.6671,-87.9365,8.5,3.42,171.8,-9999.0,'1111122,1111122,1111122' 
DISL,ioos:station:DISL:MHPA:1,2009-02-01T00:30:00Z,30.6671,-87.9365,8.5,3.63,170.4,-9999.0,'1111122,1111122,1111122' 
DISL,ioos:station:DISL:MHPA:1,2009-02-01T01:00:00Z,30.6671,-87.9365,8.5,2.68,159.8,-9999.0,'1111122,1111122,1111122' 
DISL,ioos:station:DISL:MHPA:1,2009-02-01T01:30:00Z,30.6671,-87.9365,8.5,3.0,179.4,-9999.0,'1111122,1111122,1111122' 
DISL,ioos:station:DISL:MHPA:1,2009-02-01T02:00:00Z,30.6671,-87.9365,8.5,2.39,157.0,-9999.0,'1111122,1111122,1111122' 
DISL,ioos:station:DISL:MHPA:1,2009-02-01T02:30:00Z,30.6671,-87.9365,8.5,2.21,158.9,-9999.0,'1111122,1111122,1111122' 
DISL,ioos:station:DISL:MHPA:1,2009-02-01T03:00:00Z,30.6671,-87.9365,8.5,1.91,149.7,-9999.0,'1111122,1111122,1111122' 
DISL,ioos:station:DISL:MHPA:1,2009-02-01T03:30:00Z,30.6671,-87.9365,8.5,2.12,124.1,-9999.0,'1111122,1111122,1111122' 
DISL,ioos:station:DISL:MHPA:1,2009-02-01T04:00:00Z,30.6671,-87.9365,8.5,2.08,127.2,-9999.0,'1111122,1111122,1111122' 
DISL,ioos:station:DISL:MHPA:1,2009-02-01T04:30:00Z,30.6671,-87.9365,8.5,2.45,125.2,-9999.0,'1111122,1111122,1111122' 
DISL,ioos:station:DISL:MHPA:1,2009-02-01T05:00:00Z,30.6671,-87.9365,8.5,2.32,133.5,-9999.0,'1111122,1111122,1111122' 
DISL,ioos:station:DISL:MHPA:1,2009-02-01T05:30:00Z,30.6671,-87.9365,8.5,2.44,132.3,-9999.0,'1111122,1111122,1111122' 
DISL,ioos:station:DISL:MHPA:1,2009-02-01T06:00:00Z,30.6671,-87.9365,8.5,2.74,124.7,-9999.0,'1111122,1111122,1111122' 
DISL,ioos:station:DISL:MHPA:1,2009-02-01T06:30:00Z,30.6671,-87.9365,8.5,2.2,127.9,-9999.0,'1111122,1111122,1111122' 
DISL,ioos:station:DISL:MHPA:1,2009-02-01T07:00:00Z,30.6671,-87.9365,8.5,2.47,125.8,-9999.0,'1111122,1111122,1111122' 
DISL,ioos:station:DISL:MHPA:1,2009-02-01T07:30:00Z,30.6671,-87.9365,8.5,2.89,131.1,-9999.0,'1111122,1111122,1111122' 
DISL,ioos:station:DISL:MHPA:1,2009-02-01T08:00:00Z,30.6671,-87.9365,8.5,2.73,128.4,-9999.0,'1111122,1111122,1111122' 
DISL,ioos:station:DISL:MHPA:1,2009-02-01T08:30:00Z,30.6671,-87.9365,8.5,2.44,133.4,-9999.0,'1111122,1111122,1111122' 
DISL,ioos:station:DISL:MHPA:1,2009-02-01T09:00:00Z,30.6671,-87.9365,8.5,2.27,126.7,-9999.0,'1111122,1111122,1111122' 
DISL,ioos:station:DISL:MHPA:1,2009-02-01T09:30:00Z,30.6671,-87.9365,8.5,1.71,145.7,-9999.0,'1111122,1111122,1111122' 
DISL,ioos:station:DISL:MHPA:1,2009-02-01T10:00:00Z,30.6671,-87.9365,8.5,1.35,146.0,-9999.0,'1111122,1111122,1111122' 
DISL,ioos:station:DISL:MHPA:1,2009-02-01T10:30:00Z,30.6671,-87.9365,8.5,1.24,125.4,-9999.0,'1111122,1111122,1111122' 
DISL,ioos:station:DISL:MHPA:1,2009-02-01T11:00:00Z,30.6671,-87.9365,8.5,1.44,117.2,-9999.0,'1111122,1111122,1111122' 
DISL,ioos:station:DISL:MHPA:1,2009-02-01T11:30:00Z,30.6671,-87.9365,8.5,0.87,114.2,-9999.0,'1111122,1111122,1111122' 
DISL,ioos:station:DISL:MHPA:1,2009-02-01T12:00:00Z,30.6671,-87.9365,8.5,0.77,104.7,-9999.0,'1111122,1111122,1111122' 
DISL,ioos:station:DISL:MHPA:1,2009-02-01T12:30:00Z,30.6671,-87.9365,8.5,0.69,88.3,-9999.0,'1111122,1111122,1111122' 
DISL,ioos:station:DISL:MHPA:1,2009-02-01T13:00:00Z,30.6671,-87.9365,8.5,1.12,101.1,-9999.0,'1111122,1111122,1111122' 
DISL,ioos:station:DISL:MHPA:1,2009-02-01T13:30:00Z,30.6671,-87.9365,8.5,1.63,113.9,-9999.0,'1111122,1111122,1111122' 
DISL,ioos:station:DISL:MHPA:1,2009-02-01T14:00:00Z,30.6671,-87.9365,8.5,1.29,114.6,-9999.0,'1111122,1111122,1111122' 
DISL,ioos:station:DISL:MHPA:1,2009-02-01T14:30:00Z,30.6671,-87.9365,8.5,2.09,111.5,-9999.0,'1111122,1111122,1111122' 
DISL,ioos:station:DISL:MHPA:1,2009-02-01T15:00:00Z,30.6671,-87.9365,8.5,2.21,104.7,-9999.0,'1111122,1111122,1111122' 
DISL,ioos:station:DISL:MHPA:1,2009-02-01T15:30:00Z,30.6671,-87.9365,8.5,1.82,103.8,-9999.0,'1111122,1111122,1111122' 
DISL,ioos:station:DISL:MHPA:1,2009-02-01T16:00:00Z,30.6671,-87.9365,8.5,1.84,106.8,-9999.0,'1111122,1111122,1111122' 
DISL,ioos:station:DISL:MHPA:1,2009-02-01T16:30:00Z,30.6671,-87.9365,8.5,2.19,132.2,-9999.0,'1111122,1111122,1111122' 
DISL,ioos:station:DISL:MHPA:1,2009-02-01T17:00:00Z,30.6671,-87.9365,8.5,2.2,194.5,-9999.0,'1111122,1111122,1111122' 
DISL,ioos:station:DISL:MHPA:1,2009-02-01T17:30:00Z,30.6671,-87.9365,8.5,1.05,236.7,-9999.0,'1111122,1111122,1111122' 
DISL,ioos:station:DISL:MHPA:1,2009-02-01T18:00:00Z,30.6671,-87.9365,8.5,1.1,243.8,-9999.0,'1111122,1111122,1111122' 
DISL,ioos:station:DISL:MHPA:1,2009-02-01T18:30:00Z,30.6671,-87.9365,8.5,1.42,203.1,-9999.0,'1111122,1111122,1111122' 
DISL,ioos:station:DISL:MHPA:1,2009-02-01T19:00:00Z,30.6671,-87.9365,8.5,3.23,194.9,-9999.0,'1111122,1111122,1111122' 
DISL,ioos:station:DISL:MHPA:1,2009-02-01T19:30:00Z,30.6671,-87.9365,8.5,4.59,201.9,-9999.0,'1111122,1111122,1111122' 
DISL,ioos:station:DISL:MHPA:1,2009-02-01T20:00:00Z,30.6671,-87.9365,8.5,3.8,194.5,-9999.0,'1111122,1111122,1111122' 
DISL,ioos:station:DISL:MHPA:1,2009-02-01T20:30:00Z,30.6671,-87.9365,8.5,2.98,213.9,-9999.0,'1111122,1111122,1111122' 
DISL,ioos:station:DISL:MHPA:1,2009-02-01T21:00:00Z,30.6671,-87.9365,8.5,3.13,207.7,-9999.0,'1111122,1111122,1111122' 
DISL,ioos:station:DISL:MHPA:1,2009-02-01T21:30:00Z,30.6671,-87.9365,8.5,3.46,191.2,-9999.0,'1111122,1111122,1111122' 
DISL,ioos:station:DISL:MHPA:1,2009-02-01T22:00:00Z,30.6671,-87.9365,8.5,4.06,181.5,-9999.0,'1111122,1111122,1111122' 
DISL,ioos:station:DISL:MHPA:1,2009-02-01T22:30:00Z,30.6671,-87.9365,8.5,3.33,178.8,-9999.0,'1111122,1111122,1111122' 
DISL,ioos:station:DISL:MHPA:1,2009-02-01T23:00:00Z,30.6671,-87.9365,8.5,3.86,161.1,-9999.0,'1111122,1111122,1111122' 
DISL,ioos:station:DISL:MHPA:1,2009-02-01T23:30:00Z,30.6671,-87.9365,8.5,3.53,149.5,-9999.0,'1111122,1111122,1111122' 
DISL,ioos:station:DISL:MHPA:1,2009-02-02T00:00:00Z,30.6671,-87.9365,8.5,1.43,131.0,-9999.0,'1111122,1111122,1111122' 
DISL,ioos:station:DISL:MHPA:1,2009-02-02T00:30:00Z,30.6671,-87.9365,8.5,2.0,126.0,-9999.0,'1111122,1111122,1111122' 
DISL,ioos:station:DISL:MHPA:1,2009-02-02T01:00:00Z,30.6671,-87.9365,8.5,0.92,106.2,-9999.0,'1111122,1111122,1111122' 
DISL,ioos:station:DISL:MHPA:1,2009-02-02T01:30:00Z,30.6671,-87.9365,8.5,1.76,107.5,-9999.0,'1111122,1111122,1111122' 
DISL,ioos:station:DISL:MHPA:1,2009-02-02T02:00:00Z,30.6671,-87.9365,8.5,1.57,100.3,-9999.0,'1111122,1111122,1111122' 
DISL,ioos:station:DISL:MHPA:1,2009-02-02T02:30:00Z,30.6671,-87.9365,8.5,2.57,102.0,-9999.0,'1111122,1111122,1111122' 
DISL,ioos:station:DISL:MHPA:1,2009-02-02T03:00:00Z,30.6671,-87.9365,8.5,2.1,103.6,-9999.0,'1111122,1111122,1111122' 
DISL,ioos:station:DISL:MHPA:1,2009-02-02T03:30:00Z,30.6671,-87.9365,8.5,2.5,92.1,-9999.0,'1111122,1111122,1111122' 
DISL,ioos:station:DISL:MHPA:1,2009-02-02T04:00:00Z,30.6671,-87.9365,8.5,3.05,109.7,-9999.0,'1111122,1111122,1111122' 
DISL,ioos:station:DISL:MHPA:1,2009-02-02T04:30:00Z,30.6671,-87.9365,8.5,3.08,113.0,-9999.0,'1111122,1111122,1111122' 
DISL,ioos:station:DISL:MHPA:1,2009-02-02T05:00:00Z,30.6671,-87.9365,8.5,2.58,119.9,-9999.0,'1111122,1111122,1111122' 
DISL,ioos:station:DISL:MHPA:1,2009-02-02T05:30:00Z,30.6671,-87.9365,8.5,3.08,124.0,-9999.0,'1111122,1111122,1111122' 
DISL,ioos:station:DISL:MHPA:1,2009-02-02T06:00:00Z,30.6671,-87.9365,8.5,3.2,117.1,-9999.0,'1111122,1111122,1111122' 
DISL,ioos:station:DISL:MHPA:1,2009-02-02T06:30:00Z,30.6671,-87.9365,8.5,2.65,133.0,-9999.0,'1111122,1111122,1111122' 
DISL,ioos:station:DISL:MHPA:1,2009-02-02T07:00:00Z,30.6671,-87.9365,8.5,3.9,138.5,-9999.0,'1111122,1111122,1111122' 
DISL,ioos:station:DISL:MHPA:1,2009-02-02T07:30:00Z,30.6671,-87.9365,8.5,3.1,148.4,-9999.0,'1111122,1111122,1111122' 
DISL,ioos:station:DISL:MHPA:1,2009-02-02T08:00:00Z,30.6671,-87.9365,8.5,4.07,155.1,-9999.0,'1111122,1111122,1111122' 
DISL,ioos:station:DISL:MHPA:1,2009-02-02T08:30:00Z,30.6671,-87.9365,8.5,4.38,172.2,-9999.0,'1111122,1111122,1111122' 
DISL,ioos:station:DISL:MHPA:1,2009-02-02T09:00:00Z,30.6671,-87.9365,8.5,3.17,167.8,-9999.0,'1111122,1111122,1111122' 
DISL,ioos:station:DISL:MHPA:1,2009-02-02T09:30:00Z,30.6671,-87.9365,8.5,4.64,167.2,-9999.0,'1111122,1111122,1111122' 
DISL,ioos:station:DISL:MHPA:1,2009-02-02T10:00:00Z,30.6671,-87.9365,8.5,4.24,159.0,-9999.0,'1111122,1111122,1111122' 
DISL,ioos:station:DISL:MHPA:1,2009-02-02T10:30:00Z,30.6671,-87.9365,8.5,3.01,160.6,-9999.0,'1111122,1111122,1111122' 
DISL,ioos:station:DISL:MHPA:1,2009-02-02T11:00:00Z,30.6671,-87.9365,8.5,3.2,148.4,-9999.0,'1111122,1111122,1111122' 
DISL,ioos:station:DISL:MHPA:1,2009-02-02T11:30:00Z,30.6671,-87.9365,8.5,1.93,167.4,-9999.0,'1111122,1111122,1111122' 
DISL,ioos:station:DISL:MHPA:1,2009-02-02T12:00:00Z,30.6671,-87.9365,8.5,1.38,179.8,-9999.0,'1111122,1111122,1111122' 
DISL,ioos:station:DISL:MHPA:1,2009-02-02T12:30:00Z,30.6671,-87.9365,8.5,1.22,237.3,-9999.0,'1111122,1111122,1111122' 
DISL,ioos:station:DISL:MHPA:1,2009-02-02T13:00:00Z,30.6671,-87.9365,8.5,3.29,161.6,-9999.0,'1111122,1111122,1111122' 
DISL,ioos:station:DISL:MHPA:1,2009-02-02T13:30:00Z,30.6671,-87.9365,8.5,1.88,196.7,-9999.0,'1111122,1111122,1111122' 
DISL,ioos:station:DISL:MHPA:1,2009-02-02T14:00:00Z,30.6671,-87.9365,8.5,2.12,184.3,-9999.0,'1111122,1111122,1111122' 
DISL,ioos:station:DISL:MHPA:1,2009-02-02T14:30:00Z,30.6671,-87.9365,8.5,2.07,144.7,-9999.0,'1111122,1111122,1111122' 
DISL,ioos:station:DISL:MHPA:1,2009-02-02T15:00:00Z,30.6671,-87.9365,8.5,1.65,136.1,-9999.0,'1111122,1111122,1111122' 
DISL,ioos:station:DISL:MHPA:1,2009-02-02T15:30:00Z,30.6671,-87.9365,8.5,3.07,162.5,-9999.0,'1111122,1111122,1111122' 
DISL,ioos:station:DISL:MHPA:1,2009-02-02T16:00:00Z,30.6671,-87.9365,8.5,3.32,175.1,-9999.0,'1111122,1111122,1111122' 
DISL,ioos:station:DISL:MHPA:1,2009-02-02T16:30:00Z,30.6671,-87.9365,8.5,2.46,204.0,-9999.0,'1111122,1111122,1111122' 
DISL,ioos:station:DISL:MHPA:1,2009-02-02T17:00:00Z,30.6671,-87.9365,8.5,6.58,264.9,-9999.0,'1111122,1111122,1111122' 
DISL,ioos:station:DISL:MHPA:1,2009-02-02T17:30:00Z,30.6671,-87.9365,8.5,4.68,299.8,-9999.0,'1111122,1111122,1111122' 
DISL,ioos:station:DISL:MHPA:1,2009-02-02T18:00:00Z,30.6671,-87.9365,8.5,4.84,338.9,-9999.0,'1111122,1111122,1111122' 
DISL,ioos:station:DISL:MHPA:1,2009-02-02T18:30:00Z,30.6671,-87.9365,8.5,5.48,358.2,-9999.0,'1111122,1111122,1111122' 
DISL,ioos:station:DISL:MHPA:1,2009-02-02T19:00:00Z,30.6671,-87.9365,8.5,5.44,342.7,-9999.0,'1111122,1111122,1111122' 
DISL,ioos:station:DISL:MHPA:1,2009-02-02T19:30:00Z,30.6671,-87.9365,8.5,5.74,344.2,-9999.0,'1111122,1111122,1111122' 
DISL,ioos:station:DISL:MHPA:1,2009-02-02T20:00:00Z,30.6671,-87.9365,8.5,6.3,352.1,-9999.0,'1111122,1111122,1111122' 
DISL,ioos:station:DISL:MHPA:1,2009-02-02T20:30:00Z,30.6671,-87.9365,8.5,6.17,5.341,-9999.0,'1111122,1111122,1111122' 
DISL,ioos:station:DISL:MHPA:1,2009-02-02T21:00:00Z,30.6671,-87.9365,8.5,4.94,1.855,-9999.0,'1111122,1111122,1111122' 
DISL,ioos:station:DISL:MHPA:1,2009-02-02T21:30:00Z,30.6671,-87.9365,8.5,7.09,339.7,-9999.0,'1111122,1111122,1111122' 
DISL,ioos:station:DISL:MHPA:1,2009-02-02T22:00:00Z,30.6671,-87.9365,8.5,6.5,357.4,-9999.0,'1111122,1111122,1111122' 
DISL,ioos:station:DISL:MHPA:1,2009-02-02T22:30:00Z,30.6671,-87.9365,8.5,6.35,347.2,-9999.0,'1111122,1111122,1111122' 
DISL,ioos:station:DISL:MHPA:1,2009-02-02T23:00:00Z,30.6671,-87.9365,8.5,6.5,345.4,-9999.0,'1111122,1111122,1111122' 
DISL,ioos:station:DISL:MHPA:1,2009-02-02T23:30:00Z,30.6671,-87.9365,8.5,6.74,353.7,-9999.0,'1111122,1111122,1111122' 
DISL,ioos:station:DISL:MHPA:1,2009-02-03T00:00:00Z,30.6671,-87.9365,8.5,4.56,354.9,-9999.0,'1111122,1111122,1111122' 
DISL,ioos:station:DISL:MHPA:1,2009-02-03T00:30:00Z,30.6671,-87.9365,8.5,3.82,352.1,-9999.0,'1111122,1111122,1111122' 
DISL,ioos:station:DISL:MHPA:1,2009-02-03T01:00:00Z,30.6671,-87.9365,8.5,3.72,341.2,-9999.0,'1111122,1111122,1111122' 
DISL,ioos:station:DISL:MHPA:1,2009-02-03T01:30:00Z,30.6671,-87.9365,8.5,3.92,357.0,-9999.0,'1111122,1111122,1111122' 
DISL,ioos:station:DISL:MHPA:1,2009-02-03T02:00:00Z,30.6671,-87.9365,8.5,3.81,333.9,-9999.0,'1111122,1111122,1111122' 
DISL,ioos:station:DISL:MHPA:1,2009-02-03T02:30:00Z,30.6671,-87.9365,8.5,5.49,348.6,-9999.0,'1111122,1111122,1111122' 
DISL,ioos:station:DISL:MHPA:1,2009-02-03T03:00:00Z,30.6671,-87.9365,8.5,5.78,345.7,-9999.0,'1111122,1111122,1111122' 
DISL,ioos:station:DISL:MHPA:1,2009-02-03T03:30:00Z,30.6671,-87.9365,8.5,4.76,354.1,-9999.0,'1111122,1111122,1111122' 
DISL,ioos:station:DISL:MHPA:1,2009-02-03T04:00:00Z,30.6671,-87.9365,8.5,4.18,344.6,-9999.0,'1111122,1111122,1111122' 
DISL,ioos:station:DISL:MHPA:1,2009-02-03T04:30:00Z,30.6671,-87.9365,8.5,4.07,350.1,-9999.0,'1111122,1111122,1111122' 
DISL,ioos:station:DISL:MHPA:1,2009-02-03T05:00:00Z,30.6671,-87.9365,8.5,3.29,346.6,-9999.0,'1111122,1111122,1111122' 
DISL,ioos:station:DISL:MHPA:1,2009-02-03T05:30:00Z,30.6671,-87.9365,8.5,3.83,346.6,-9999.0,'1111122,1111122,1111122' 
DISL,ioos:station:DISL:MHPA:1,2009-02-03T06:00:00Z,30.6671,-87.9365,8.5,3.31,335.1,-9999.0,'1111122,1111122,1111122' 
DISL,ioos:station:DISL:MHPA:1,2009-02-03T06:30:00Z,30.6671,-87.9365,8.5,2.32,340.1,-9999.0,'1111122,1111122,1111122' 
DISL,ioos:station:DISL:MHPA:1,2009-02-03T07:00:00Z,30.6671,-87.9365,8.5,3.19,327.1,-9999.0,'1111122,1111122,1111122' 
DISL,ioos:station:DISL:MHPA:1,2009-02-03T07:30:00Z,30.6671,-87.9365,8.5,2.42,338.8,-9999.0,'1111122,1111122,1111122' 
DISL,ioos:station:DISL:MHPA:1,2009-02-03T08:00:00Z,30.6671,-87.9365,8.5,3.15,332.0,-9999.0,'1111122,1111122,1111122' 
DISL,ioos:station:DISL:MHPA:1,2009-02-03T08:30:00Z,30.6671,-87.9365,8.5,3.09,344.7,-9999.0,'1111122,1111122,1111122' 
DISL,ioos:station:DISL:MHPA:1,2009-02-03T09:00:00Z,30.6671,-87.9365,8.5,2.77,343.5,-9999.0,'1111122,1111122,1111122' 
DISL,ioos:station:DISL:MHPA:1,2009-02-03T09:30:00Z,30.6671,-87.9365,8.5,2.4,351.3,-9999.0,'1111122,1111122,1111122' 
DISL,ioos:station:DISL:MHPA:1,2009-02-03T10:00:00Z,30.6671,-87.9365,8.5,1.42,21.48,-9999.0,'1111122,1111122,1111122' 
DISL,ioos:station:DISL:MHPA:1,2009-02-03T10:30:00Z,30.6671,-87.9365,8.5,1.83,341.7,-9999.0,'1111122,1111122,1111122' 
DISL,ioos:station:DISL:MHPA:1,2009-02-03T11:00:00Z,30.6671,-87.9365,8.5,1.7,339.4,-9999.0,'1111122,1111122,1111122' 
DISL,ioos:station:DISL:MHPA:1,2009-02-03T11:30:00Z,30.6671,-87.9365,8.5,2.19,351.7,-9999.0,'1111122,1111122,1111122' 
DISL,ioos:station:DISL:MHPA:1,2009-02-03T12:00:00Z,30.6671,-87.9365,8.5,2.05,349.5,-9999.0,'1111122,1111122,1111122' 
DISL,ioos:station:DISL:MHPA:1,2009-02-03T12:30:00Z,30.6671,-87.9365,8.5,1.61,356.9,-9999.0,'1111122,1111122,1111122' 
DISL,ioos:station:DISL:MHPA:1,2009-02-03T13:00:00Z,30.6671,-87.9365,8.5,1.96,348.7,-9999.0,'1111122,1111122,1111122' 
DISL,ioos:station:DISL:MHPA:1,2009-02-03T13:30:00Z,30.6671,-87.9365,8.5,1.77,340.7,-9999.0,'1111122,1111122,1111122' 
DISL,ioos:station:DISL:MHPA:1,2009-02-03T14:00:00Z,30.6671,-87.9365,8.5,2.08,341.0,-9999.0,'1111122,1111122,1111122' 
DISL,ioos:station:DISL:MHPA:1,2009-02-03T14:30:00Z,30.6671,-87.9365,8.5,1.32,13.39,-9999.0,'1111122,1111122,1111122' 
DISL,ioos:station:DISL:MHPA:1,2009-02-03T15:00:00Z,30.6671,-87.9365,8.5,1.29,356.6,-9999.0,'1111122,1111122,1111122' 
DISL,ioos:station:DISL:MHPA:1,2009-02-03T15:30:00Z,30.6671,-87.9365,8.5,1.21,239.5,-9999.0,'1111122,1111122,1111122' 
DISL,ioos:station:DISL:MHPA:1,2009-02-03T16:00:00Z,30.6671,-87.9365,8.5,2.4,247.4,-9999.0,'1111122,1111122,1111122' 
DISL,ioos:station:DISL:MHPA:1,2009-02-03T16:30:00Z,30.6671,-87.9365,8.5,2.4,234.8,-9999.0,'1111122,1111122,1111122' 
DISL,ioos:station:DISL:MHPA:1,2009-02-03T17:00:00Z,30.6671,-87.9365,8.5,3.11,239.6,-9999.0,'1111122,1111122,1111122' 
DISL,ioos:station:DISL:MHPA:1,2009-02-03T17:30:00Z,30.6671,-87.9365,8.5,3.16,240.7,-9999.0,'1111122,1111122,1111122' 
DISL,ioos:station:DISL:MHPA:1,2009-02-03T18:00:00Z,30.6671,-87.9365,8.5,2.72,228.2,-9999.0,'1111122,1111122,1111122' 
DISL,ioos:station:DISL:MHPA:1,2009-02-03T18:30:00Z,30.6671,-87.9365,8.5,3.82,183.4,-9999.0,'1111122,1111122,1111122' 
DISL,ioos:station:DISL:MHPA:1,2009-02-03T19:00:00Z,30.6671,-87.9365,8.5,6.63,184.2,-9999.0,'1111122,1111122,1111122' 
DISL,ioos:station:DISL:MHPA:1,2009-02-03T19:30:00Z,30.6671,-87.9365,8.5,8.0,181.5,-9999.0,'1111122,1111122,1111122' 
DISL,ioos:station:DISL:MHPA:1,2009-02-03T20:00:00Z,30.6671,-87.9365,8.5,8.09,180.5,-9999.0,'1111122,1111122,1111122' 
DISL,ioos:station:DISL:MHPA:1,2009-02-03T20:30:00Z,30.6671,-87.9365,8.5,7.87,180.5,-9999.0,'1111122,1111122,1111122' 
DISL,ioos:station:DISL:MHPA:1,2009-02-03T21:00:00Z,30.6671,-87.9365,8.5,7.32,199.2,-9999.0,'1111122,1111122,1111122' 
DISL,ioos:station:DISL:MHPA:1,2009-02-03T21:30:00Z,30.6671,-87.9365,8.5,6.88,209.9,-9999.0,'1111122,1111122,1111122' 
DISL,ioos:station:DISL:MHPA:1,2009-02-03T22:00:00Z,30.6671,-87.9365,8.5,6.93,243.0,-9999.0,'1111122,1111122,1111122' 
DISL,ioos:station:DISL:MHPA:1,2009-02-03T22:30:00Z,30.6671,-87.9365,8.5,6.81,232.0,-9999.0,'1111122,1111122,1111122' 
DISL,ioos:station:DISL:MHPA:1,2009-02-03T23:00:00Z,30.6671,-87.9365,8.5,7.95,250.9,-9999.0,'1111122,1111122,1111122' 
DISL,ioos:station:DISL:MHPA:1,2009-02-03T23:30:00Z,30.6671,-87.9365,8.5,7.36,246.5,-9999.0,'1111122,1111122,1111122' 
DISL,ioos:station:DISL:MHPA:1,2009-02-04T00:00:00Z,30.6671,-87.9365,8.5,6.96,253.1,-9999.0,'1111122,1111122,1111122' 
DISL,ioos:station:DISL:MHPA:1,2009-02-04T00:30:00Z,30.6671,-87.9365,8.5,6.33,256.1,-9999.0,'1111122,1111122,1111122' 
DISL,ioos:station:DISL:MHPA:1,2009-02-04T01:00:00Z,30.6671,-87.9365,8.5,5.12,266.3,-9999.0,'1111122,1111122,1111122' 
DISL,ioos:station:DISL:MHPA:1,2009-02-04T01:30:00Z,30.6671,-87.9365,8.5,3.96,277.5,-9999.0,'1111122,1111122,1111122' 
DISL,ioos:station:DISL:MHPA:1,2009-02-04T02:00:00Z,30.6671,-87.9365,8.5,2.11,325.1,-9999.0,'1111122,1111122,1111122' 
DISL,ioos:station:DISL:MHPA:1,2009-02-04T02:30:00Z,30.6671,-87.9365,8.5,5.66,332.4,-9999.0,'1111122,1111122,1111122' 
DISL,ioos:station:DISL:MHPA:1,2009-02-04T03:00:00Z,30.6671,-87.9365,8.5,5.28,334.2,-9999.0,'1111122,1111122,1111122' 
DISL,ioos:station:DISL:MHPA:1,2009-02-04T03:30:00Z,30.6671,-87.9365,8.5,7.25,343.5,-9999.0,'1111122,1111122,1111122' 
DISL,ioos:station:DISL:MHPA:1,2009-02-04T04:00:00Z,30.6671,-87.9365,8.5,7.04,348.7,-9999.0,'1111122,1111122,1111122' 
DISL,ioos:station:DISL:MHPA:1,2009-02-04T04:30:00Z,30.6671,-87.9365,8.5,5.64,341.7,-9999.0,'1111122,1111122,1111122' 
DISL,ioos:station:DISL:MHPA:1,2009-02-04T05:00:00Z,30.6671,-87.9365,8.5,6.55,357.1,-9999.0,'1111122,1111122,1111122' 
DISL,ioos:station:DISL:MHPA:1,2009-02-04T05:30:00Z,30.6671,-87.9365,8.5,6.93,355.3,-9999.0,'1111122,1111122,1111122' 
DISL,ioos:station:DISL:MHPA:1,2009-02-04T06:00:00Z,30.6671,-87.9365,8.5,5.1,354.1,-9999.0,'1111122,1111122,1111122' 
DISL,ioos:station:DISL:MHPA:1,2009-02-04T06:30:00Z,30.6671,-87.9365,8.5,6.86,359.8,-9999.0,'1111122,1111122,1111122' 
DISL,ioos:station:DISL:MHPA:1,2009-02-04T07:00:00Z,30.6671,-87.9365,8.5,5.4,359.7,-9999.0,'1111122,1111122,1111122' 
DISL,ioos:station:DISL:MHPA:1,2009-02-04T07:30:00Z,30.6671,-87.9365,8.5,4.28,354.5,-9999.0,'1111122,1111122,1111122' 
DISL,ioos:station:DISL:MHPA:1,2009-02-04T08:00:00Z,30.6671,-87.9365,8.5,5.62,347.9,-9999.0,'1111122,1111122,1111122' 
DISL,ioos:station:DISL:MHPA:1,2009-02-04T08:30:00Z,30.6671,-87.9365,8.5,5.71,347.0,-9999.0,'1111122,1111122,1111122' 
DISL,ioos:station:DISL:MHPA:1,2009-02-04T09:00:00Z,30.6671,-87.9365,8.5,5.32,340.2,-9999.0,'1111122,1111122,1111122' 
DISL,ioos:station:DISL:MHPA:1,2009-02-04T09:30:00Z,30.6671,-87.9365,8.5,5.83,351.2,-9999.0,'1111122,1111122,1111122' 
DISL,ioos:station:DISL:MHPA:1,2009-02-04T10:00:00Z,30.6671,-87.9365,8.5,6.41,342.7,-9999.0,'1111122,1111122,1111122' 
DISL,ioos:station:DISL:MHPA:1,2009-02-04T10:30:00Z,30.6671,-87.9365,8.5,6.39,7.17,-9999.0,'1111122,1111122,1111122' 
DISL,ioos:station:DISL:MHPA:1,2009-02-04T11:00:00Z,30.6671,-87.9365,8.5,5.02,9.13,-9999.0,'1111122,1111122,1111122' 
DISL,ioos:station:DISL:MHPA:1,2009-02-04T11:30:00Z,30.6671,-87.9365,8.5,4.04,9.42,-9999.0,'1111122,1111122,1111122' 
DISL,ioos:station:DISL:MHPA:1,2009-02-04T12:00:00Z,30.6671,-87.9365,8.5,3.87,9.51,-9999.0,'1111122,1111122,1111122' 
DISL,ioos:station:DISL:MHPA:1,2009-02-04T12:30:00Z,30.6671,-87.9365,8.5,4.11,9.49,-9999.0,'1111122,1111122,1111122' 
DISL,ioos:station:DISL:MHPA:1,2009-02-04T13:00:00Z,30.6671,-87.9365,8.5,3.97,12.45,-9999.0,'1111122,1111122,1111122' 
DISL,ioos:station:DISL:MHPA:1,2009-02-04T13:30:00Z,30.6671,-87.9365,8.5,4.37,8.69,-9999.0,'1111122,1111122,1111122' 
DISL,ioos:station:DISL:MHPA:1,2009-02-04T14:00:00Z,30.6671,-87.9365,8.5,3.99,12.48,-9999.0,'1111122,1111122,1111122' 
DISL,ioos:station:DISL:MHPA:1,2009-02-04T14:30:00Z,30.6671,-87.9365,8.5,5.35,18.69,-9999.0,'1111122,1111122,1111122' 
DISL,ioos:station:DISL:MHPA:1,2009-02-04T15:00:00Z,30.6671,-87.9365,8.5,5.96,12.5,-9999.0,'1111122,1111122,1111122' 
DISL,ioos:station:DISL:MHPA:1,2009-02-04T15:30:00Z,30.6671,-87.9365,8.5,6.57,358.9,-9999.0,'1111122,1111122,1111122' 
DISL,ioos:station:DISL:MHPA:1,2009-02-04T16:00:00Z,30.6671,-87.9365,8.5,6.0,357.2,-9999.0,'1111122,1111122,1111122' 
DISL,ioos:station:DISL:MHPA:1,2009-02-04T16:30:00Z,30.6671,-87.9365,8.5,6.06,350.1,-9999.0,'1111122,1111122,1111122' 
DISL,ioos:station:DISL:MHPA:1,2009-02-04T17:00:00Z,30.6671,-87.9365,8.5,4.87,3.554,-9999.0,'1111122,1111122,1111122' 
DISL,ioos:station:DISL:MHPA:1,2009-02-04T17:30:00Z,30.6671,-87.9365,8.5,5.36,343.5,-9999.0,'1111122,1111122,1111122' 
DISL,ioos:station:DISL:MHPA:1,2009-02-04T18:00:00Z,30.6671,-87.9365,8.5,5.32,354.5,-9999.0,'1111122,1111122,1111122' 
DISL,ioos:station:DISL:MHPA:1,2009-02-04T18:30:00Z,30.6671,-87.9365,8.5,5.71,1.135,-9999.0,'1111122,1111122,1111122' 
DISL,ioos:station:DISL:MHPA:1,2009-02-04T19:00:00Z,30.6671,-87.9365,8.5,5.0,0.09,-9999.0,'1111122,1111122,1111122' 
DISL,ioos:station:DISL:MHPA:1,2009-02-04T19:30:00Z,30.6671,-87.9365,8.5,5.31,353.2,-9999.0,'1111122,1111122,1111122' 
DISL,ioos:station:DISL:MHPA:1,2009-02-04T20:00:00Z,30.6671,-87.9365,8.5,4.66,341.2,-9999.0,'1111122,1111122,1111122' 
DISL,ioos:station:DISL:MHPA:1,2009-02-04T20:30:00Z,30.6671,-87.9365,8.5,4.14,348.4,-9999.0,'1111122,1111122,1111122' 
DISL,ioos:station:DISL:MHPA:1,2009-02-04T21:00:00Z,30.6671,-87.9365,8.5,4.44,3.813,-9999.0,'1111122,1111122,1111122' 
DISL,ioos:station:DISL:MHPA:1,2009-02-04T21:30:00Z,30.6671,-87.9365,8.5,4.73,339.6,-9999.0,'1111122,1111122,1111122' 
DISL,ioos:station:DISL:MHPA:1,2009-02-04T22:00:00Z,30.6671,-87.9365,8.5,4.74,343.3,-9999.0,'1111122,1111122,1111122' 
DISL,ioos:station:DISL:MHPA:1,2009-02-04T22:30:00Z,30.6671,-87.9365,8.5,4.9,344.5,-9999.0,'1111122,1111122,1111122' 
DISL,ioos:station:DISL:MHPA:1,2009-02-04T23:00:00Z,30.6671,-87.9365,8.5,3.56,355.1,-9999.0,'1111122,1111122,1111122' 
DISL,ioos:station:DISL:MHPA:1,2009-02-04T23:30:00Z,30.6671,-87.9365,8.5,3.54,347.0,-9999.0,'1111122,1111122,1111122' 
DISL,ioos:station:DISL:MHPA:1,2009-02-05T00:00:00Z,30.6671,-87.9365,8.5,2.76,344.9,-9999.0,'1111122,1111122,1111122' 
DISL,ioos:station:DISL:MHPA:1,2009-02-05T00:30:00Z,30.6671,-87.9365,8.5,2.09,346.8,-9999.0,'1111122,1111122,1111122' 
DISL,ioos:station:DISL:MHPA:1,2009-02-05T01:00:00Z,30.6671,-87.9365,8.5,0.97,27.08,-9999.0,'1111122,1111122,1111122' 
DISL,ioos:station:DISL:MHPA:1,2009-02-05T01:30:00Z,30.6671,-87.9365,8.5,1.09,37.24,-9999.0,'1111122,1111122,1111122' 
DISL,ioos:station:DISL:MHPA:1,2009-02-05T02:00:00Z,30.6671,-87.9365,8.5,1.11,46.89,-9999.0,'1111122,1111122,1111122' 
DISL,ioos:station:DISL:MHPA:1,2009-02-05T02:30:00Z,30.6671,-87.9365,8.5,0.92,78.6,-9999.0,'1111122,1111122,1111122' 
DISL,ioos:station:DISL:MHPA:1,2009-02-05T03:00:00Z,30.6671,-87.9365,8.5,0.63,59.28,-9999.0,'1111122,1111122,1111122' 
DISL,ioos:station:DISL:MHPA:1,2009-02-05T03:30:00Z,30.6671,-87.9365,8.5,1.18,41.6,-9999.0,'1111122,1111122,1111122' 
DISL,ioos:station:DISL:MHPA:1,2009-02-05T04:00:00Z,30.6671,-87.9365,8.5,0.24,19.0,-9999.0,'1111122,1111122,1111122' 
DISL,ioos:station:DISL:MHPA:1,2009-02-05T04:30:00Z,30.6671,-87.9365,8.5,0.35,26.99,-9999.0,'1111122,1111122,1111122' 